Total_Precipitation_Accumulation
1.97 2.15 2.45 2.94 3.74 4.48 5.17 5.31 5.61 5.11 4.48 3.98 3.61 3.50 3.30 2.99 2.88 2.76 2.70 2.55 2.29 2.19 2.43 2.28 2.33 2.16 2.24 2.25 2.35 2.60 2.74 2.38 2.48 2.94 2.53 1.93 1.56 1.55 1.45 1.44 1.52 1.58 1.65
2.04 2.39 2.91 3.30 3.33 3.88 4.59 4.65 4.37 4.17 3.75 3.37 3.21 3.04 2.99 2.66 2.48 2.35 2.43 2.22 2.07 2.10 2.13 2.28 2.14 2.08 2.22 2.22 2.27 2.48 2.47 2.18 2.38 2.89 3.00 2.46 2.06 1.75 1.40 1.38 1.42 1.56 1.79
1.89 2.32 2.73 3.17 3.14 3.53 3.62 3.26 3.12 3.23 3.19 3.02 2.92 2.77 2.77 2.58 2.32 2.16 2.19 2.03 1.84 1.86 1.90 1.91 1.97 2.08 1.87 2.03 2.21 2.35 2.43 2.31 2.25 2.52 2.96 2.74 2.39 2.04 1.66 1.52 1.61 1.80 1.96
1.36 1.64 1.97 2.39 2.59 2.69 2.61 2.58 2.58 2.65 2.86 2.85 2.63 2.45 2.18 2.09 2.03 1.93 1.99 1.98 1.75 1.68 1.71 1.71 1.86 1.94 1.88 2.11 1.84 1.97 2.24 2.46 2.27 2.29 2.34 2.40 2.62 2.58 2.16 1.79 1.67 1.78 1.91
1.05 1.18 1.28 1.49 1.77 2.03 2.10 2.10 2.40 2.52 2.55 2.53 2.49 2.52 2.26 2.08 2.04 2.15 2.36 2.28 1.96 1.65 1.50 1.60 1.76 1.86 1.91 1.99 1.93 2.04 2.01 2.08 2.14 2.22 2.22 2.36 2.59 2.44 2.34 2.14 1.91 1.82 1.67
0.82 1.00 1.04 1.07 1.20 1.36 1.50 1.63 1.93 2.17 2.24 2.19 2.19 2.26 2.30 2.28 2.09 2.04 2.10 2.05 1.90 1.71 1.53 1.56 1.78 1.85 1.89 1.90 1.95 1.96 1.88 1.96 2.07 2.12 2.15 2.34 2.38 2.31 2.40 2.25 2.07 1.94 1.68
0.65 0.82 0.81 0.86 0.97 1.00 1.11 1.34 1.56 1.73 1.83 1.90 1.97 2.05 2.25 2.22 2.00 1.80 1.84 1.83 1.69 1.60 1.59 1.56 1.83 1.94 1.91 1.88 1.97 1.95 1.93 2.04 2.11 2.14 2.17 2.24 2.20 2.23 2.41 2.47 2.20 2.01 1.81
0.58 0.63 0.58 0.60 0.75 0.82 0.91 1.08 1.24 1.35 1.46 1.67 1.87 1.87 2.02 1.89 1.77 1.90 1.80 1.68 1.49 1.53 1.75 1.86 1.89 1.88 1.89 1.90 2.14 2.00 2.00 2.07 2.10 2.02 2.34 2.31 2.16 2.38 2.61 2.78 2.82 2.47 2.23
0.54 0.53 0.47 0.49 0.52 0.58 0.67 0.86 1.15 1.24 1.27 1.36 1.56 1.67 1.68 1.70 1.79 1.97 1.91 1.74 1.66 1.55 1.75 1.92 2.02 1.95 1.90 1.99 2.20 2.15 2.19 2.30 2.20 2.19 2.42 2.36 2.25 2.33 2.43 2.71 3.00 3.03 2.74
0.63 0.67 0.53 0.50 0.51 0.50 0.59 0.69 0.86 1.10 1.28 1.27 1.27 1.30 1.56 1.62 1.74 1.83 1.78 1.75 1.71 1.70 1.79 1.79 1.83 1.83 1.79 1.91 2.22 2.22 2.25 2.45 2.39 2.34 2.37 2.37 2.26 2.36 2.37 2.50 2.86 3.14 3.16
0.57 0.65 0.49 0.47 0.46 0.49 0.55 0.65 0.79 1.07 1.27 1.19 1.21 1.33 1.50 1.60 1.64 1.80 1.79 1.74 1.73 1.78 1.76 1.75 1.77 1.74 1.64 1.72 1.91 2.02 2.21 2.35 2.40 2.37 2.39 2.38 2.51 2.57 2.46 2.56 2.68 2.91 3.09
0.60 0.64 0.56 0.62 0.64 0.68 0.70 0.78 0.88 1.04 1.15 1.17 1.25 1.32 1.42 1.52 1.58 1.65 1.73 1.79 1.77 1.83 1.84 1.82 1.77 1.63 1.62 1.70 1.81 1.94 2.13 2.28 2.36 2.46 2.55 2.35 2.46 2.59 2.53 2.54 2.57 2.68 2.95
0.71 0.68 0.71 0.83 0.81 0.84 0.95 0.99 1.04 1.07 1.16 1.29 1.31 1.28 1.35 1.35 1.41 1.50 1.57 1.71 1.77 1.83 1.90 1.91 1.82 1.76 1.79 1.87 1.92 1.97 2.12 2.22 2.29 2.40 2.41 2.37 2.51 2.39 2.46 2.56 2.53 2.54 2.58
0.75 0.68 0.74 0.82 0.87 0.91 0.99 1.04 1.04 1.07 1.17 1.23 1.28 1.29 1.29 1.35 1.45 1.54 1.60 1.68 1.69 1.74 1.75 1.74 1.81 1.87 1.92 1.93 1.92 1.92 1.95 2.01 2.08 2.08 1.99 1.94 1.99 2.07 2.26 2.27 2.28 2.37 2.44
0.75 0.67 0.72 0.83 0.98 1.00 0.94 0.97 1.03 1.10 1.24 1.24 1.20 1.26 1.37 1.41 1.46 1.48 1.51 1.57 1.59 1.58 1.74 1.77 1.87 1.96 1.93 1.81 1.84 1.85 1.77 1.92 1.88 1.75 1.69 1.70 1.80 1.82 1.91 1.83 1.94 2.13 2.21
0.74 0.73 0.83 0.99 0.99 0.90 0.88 0.91 0.89 0.97 1.14 1.23 1.33 1.42 1.44 1.38 1.45 1.49 1.49 1.51 1.57 1.64 1.74 1.80 1.92 1.98 1.82 1.86 1.89 1.90 1.87 1.89 1.83 1.78 1.71 1.58 1.58 1.57 1.60 1.60 1.66 1.82 1.96
0.67 0.74 0.82 0.89 0.92 0.92 0.90 0.86 0.80 0.92 1.22 1.30 1.32 1.51 1.61 1.52 1.58 1.62 1.62 1.60 1.60 1.73 1.81 1.94 2.01 1.97 2.05 1.98 1.81 1.79 1.74 1.78 1.80 1.84 1.82 1.54 1.36 1.48 1.43 1.55 1.54 1.52 1.58
0.63 0.74 0.77 0.79 0.83 0.86 0.85 0.84 0.89 0.96 1.22 1.42 1.49 1.71 1.85 1.74 1.75 1.77 1.79 1.83 1.88 1.90 2.01 2.05 1.97 1.93 2.00 1.96 1.63 1.50 1.39 1.51 1.61 1.69 1.75 1.74 1.64 1.59 1.58 1.63 1.63 1.56 1.55
0.67 0.72 0.81 0.87 0.96 1.05 1.04 1.02 1.12 1.24 1.42 1.61 1.72 1.92 2.12 2.25 2.20 2.07 2.14 2.22 2.20 2.16 2.22 2.25 2.19 2.06 2.06 1.90 1.53 1.36 1.27 1.41 1.50 1.55 1.55 1.57 1.49 1.51 1.41 1.42 1.48 1.48 1.44
0.73 0.88 1.04 1.04 1.11 1.23 1.17 1.19 1.34 1.59 1.75 1.77 1.78 1.93 2.14 2.23 2.21 2.23 2.43 2.54 2.44 2.33 2.34 2.24 2.11 2.00 1.99 1.95 1.62 1.40 1.30 1.42 1.51 1.62 1.61 1.59 1.52 1.48 1.30 1.24 1.31 1.28 1.30
0.77 0.83 0.86 1.01 1.14 1.26 1.34 1.48 1.54 1.66 1.71 1.73 1.75 1.87 2.10 2.37 2.34 2.37 2.46 2.53 2.52 2.51 2.50 2.40 2.27 2.10 2.05 2.04 1.73 1.53 1.41 1.48 1.54 1.49 1.49 1.49 1.49 1.26 1.15 1.11 1.14 1.18 1.19
0.80 0.80 0.79 0.92 1.11 1.33 1.55 1.64 1.64 1.67 1.76 1.75 1.72 1.80 2.07 2.21 2.26 2.40 2.45 2.54 2.64 2.62 2.56 2.52 2.35 2.29 2.22 1.95 1.70 1.52 1.48 1.54 1.59 1.57 1.53 1.50 1.37 1.14 1.02 0.89 0.86 0.90 0.89
0.89 0.90 0.92 1.00 1.13 1.31 1.54 1.74 1.77 1.75 1.67 1.62 1.59 1.68 1.85 1.95 2.10 2.21 2.15 2.20 2.32 2.30 2.34 2.34 2.27 2.31 2.41 2.24 1.81 1.52 1.43 1.47 1.54 1.66 1.72 1.52 1.33 1.17 1.04 0.97 0.88 0.80 0.76
1.05 1.04 1.09 1.14 1.20 1.29 1.47 1.65 1.66 1.67 1.65 1.56 1.50 1.61 1.83 1.94 2.02 2.08 2.05 2.10 2.15 2.21 2.28 2.30 2.24 2.25 2.38 2.38 2.06 1.73 1.52 1.42 1.38 1.39 1.38 1.29 1.21 1.09 0.97 0.90 0.81 0.72 0.75
1.07 1.08 1.12 1.19 1.21 1.27 1.45 1.59 1.62 1.66 1.71 1.66 1.61 1.70 1.80 1.89 2.06 2.12 2.14 2.13 2.13 2.10 2.09 2.09 2.04 2.05 2.17 2.20 1.98 1.72 1.56 1.44 1.39 1.33 1.32 1.29 1.29 1.18 1.08 1.00 0.96 0.96 0.97
1.12 1.17 1.25 1.26 1.23 1.24 1.37 1.49 1.67 1.82 1.85 1.80 1.76 1.72 1.68 1.76 1.83 1.87 1.82 1.76 1.70 1.69 1.63 1.62 1.54 1.53 1.69 1.68 1.42 1.27 1.28 1.29 1.25 1.19 1.21 1.28 1.32 1.27 1.20 1.15 1.11 1.12 1.11